This demonstration page uses our WeatherBlox Daily Observations layout. Learn more.

Left ArrowRight Arrow

Hourly Observations for September 29, 2022

Temp ( °F °C ) Dew Point ( °F °C ) Humidity (%) Winds ( mph kmh ) Pressure ( in mb ) Visibility ( mi km ) Precip ( " mm )
12:53 am 00:53 Partly Cloudy 51 10.6 42 5.6 71 71 E 6 9 30.14 1021 10 16 0.00 0.00
1:53 am 01:53 Partly Cloudy 49 9.4 42 5.6 77 77 E 5 7 30.15 1021 10 16 0.00 0.00
2:53 am 02:53 Clear 49 9.4 43 6.1 80 80 WSW 3 6 30.14 1021 10 16 0.00 0.00
3:53 am 03:53 Clear 48 8.9 41 5 76 76 S 3 6 30.16 1022 10 16 0.00 0.00
4:53 am 04:53 Clear 45 7.2 40 4.4 82 82 SW 3 6 30.16 1022 10 16 0.00 0.00
5:53 am 05:53 Mostly Clear 42 5.6 39 3.9 89 89 Calm 30.19 1022 10 16 0.00 0.00
6:53 am 06:53 Clear 43 6.1 39 3.9 86 86 Calm 30.21 1023 10 16 0.00 0.00
7:53 am 07:53 Mostly Sunny 45 7.2 41 5 86 86 SW 3 6 30.22 1024 10 16 0.00 0.00
8:53 am 08:53 Mostly Cloudy 52 11.1 44 6.7 74 74 Calm 30.22 1023 10 16 0.00 0.00
9:53 am 09:53 Mostly Cloudy 59 15 45 7.2 60 60 SSE 5 7 30.17 1022 10 16 0.01 0.13
10:10 am 10:10 Cloudy with Nearby Thunderstorms 59 15 47 8.3 64 64 WNW 5 7 30.07 1018 3 5 0.02 0.51
10:19 am 10:19 Cloudy with Heavy Rain 57 13.9 48 8.9 72 72 ENE 6 9 30.09 1019 3 4 0.07 1.78
10:28 am 10:28 Cloudy with Light Rain 57 13.9 47 8.3 69 69 VRB 3 6 30.09 1019 7 11 0.08 2.03
10:53 am 10:53 Mostly Cloudy with Light Rain 58 14.4 51 10.6 78 78 Calm 30.19 1022 10 16 0.08 2.03
11:53 am 11:53 Mostly Sunny 66 18.9 49 9.4 54 54 NNE 3 6 30.14 1021 10 16 0.01 0.13
12:53 pm 12:53 Partly Cloudy 71 21.7 45 7.2 39 39 W 12 19 30.10 1019 10 16 0.00 0.00
1:53 pm 13:53 Mostly Cloudy 70 21.1 43 6.1 38 38 S 21 33 30.08 1019 10 16 0.00 0.00
2:53 pm 14:53 Partly Cloudy 71 21.7 41 5 34 34 S 20 31 30.05 1018 10 16 0.00 0.00
3:53 pm 15:53 Mostly Cloudy with Nearby Thunderstorms 71 21.7 40 4.4 32 32 SSW 16 26 30.03 1017 10 16 0.00 0.00
4:18 pm 16:18 Windy with Storms Likely 63 17.2 46 7.8 54 54 WSW 21 33 29.89 1012 10 16 0.01 0.13
4:25 pm 16:25 Cloudy with Thunderstorms 60 15.6 48 8.9 64 64 WSW 12 19 29.93 1013 8 13 0.01 0.25
4:37 pm 16:37 Cloudy with Light Rain 62 16.7 48 8.9 60 60 S 17 28 29.88 1012 7 11 0.03 0.76
4:46 pm 16:46 Mostly Cloudy with Light Rain 66 18.9 48 8.9 52 52 S 15 24 29.83 1010 10 16 0.03 0.76
4:53 pm 16:53 Partly Cloudy 67 19.4 45 7.2 45 45 S 17 28 30.07 1018 10 16 0.03 0.76
5:53 pm 17:53 Sunny 64 17.8 43 6.1 46 46 S 6 9 30.07 1018 10 16 0.00 0.00
6:53 pm 18:53 Sunny 61 16.1 44 6.7 54 54 E 3 6 30.07 1018 10 16 0.00 0.00
7:53 pm 19:53 Mostly Cloudy 56 13.3 45 7.2 66 66 ESE 5 7 30.09 1019 10 16 0.00 0.00
8:53 pm 20:53 Mostly Cloudy 57 13.9 43 6.1 59 59 E 5 7 30.07 1018 10 16 0.00 0.00
9:53 pm 21:53 Cloudy 56 13.3 47 8.3 72 72 VRB 5 7 30.05 1018 10 16 0.00 0.00
10:53 pm 22:53 Mostly Clear 55 12.8 42 5.6 62 62 ESE 3 6 30.03 1017 10 16 0.00 0.00
11:53 pm 23:53 Clear 53 11.7 42 5.6 66 66 VRB 5 7 30.01 1016 10 16 0.00 0.00

Powered by AerisWeather